Location: Flotzheim
(48.8375°N, 10.8136°E)
Time: 17:27:38
(UTC+00:00)

Cosmos 990 Rocket - Pass Details

Date: 23 January 2021
Orbit: 748 x 768 km, 74.0° (Epoch: 01 March)

Event Time Altitude Azimuth Distance (km) Brightness Sun altitude
Rises 17:30:33 0° 183° (S) 3,211 7.4 -14.7°
Reaches altitude 10° 17:33:00 10° 177° (S) 2,287 6.6 -15.1°
Maximum altitude 17:37:56 46° 105° (ESE) 1,010 4.2 -15.9°
Enters shadow 17:41:18 19° 41° (NE) 1,732 5.4 -16.4°
